Chicago Midway, IL

8:09 AM CDT on March 24, 2017 (GMT -0500)
Chicago-Midway

Weather History for KMDW - January, 2015

Change the Weather History Date:

Tuesday, January 6, 2015

  Actual Average Record
Temperature  
Mean Temperature 9 °F 25 °F  
Max Temperature 12 °F 32 °F 60 °F (2008)
Min Temperature 5 °F 19 °F -15 °F (2014)
Degree Days  
Heating Degree Days 56 40  
Month to date heating degree days 268 239  
Since 1 July heating degree days 2459 2490  
Cooling Degree Days 0 0  
Month to date cooling degree days 0 0  
Year to date cooling degree days 0 0  
Moisture  
Dew Point 2 °F    
Average Humidity 70    
Maximum Humidity 80    
Minimum Humidity 50    
Precipitation  
Precipitation T in 0.07 in 0.75 in (1962)
Month to date precipitation 0.76 0.46  
Year to date precipitation 0.76 0.46  
Snow  
Snow 0.00 in - - ()
Snow Depth 3.00 in    
Sea Level Pressure  
Sea Level Pressure 30.37 in    
Wind  
Wind Speed 13 mph (WNW)    
Max Wind Speed 25 mph    
Max Gust Speed 31 mph    
Visibility 7 miles    
Events Snow    
T = Trace of Precipitation, MM = Missing Value Source: NWS Daily Summary

Daily Weather History Graph

Daily Weather History Graph

Search for Another Location

Airport or City:

Trip Planner

Search our weather history database for the weather conditions in past years. The results will help you decide how hot, cold, wet, or windy it might be!

Date:

Astronomy

Jan. 06, 2015 Rise Set
Actual Time 7:18 AM CST 4:35 PM CST
Civil Twilight 6:47 AM CST 5:06 PM CST
Nautical Twilight 6:12 AM CST 5:41 PM CST
Astronomical Twilight 5:38 AM CST 6:15 PM CST
Moon 6:26 PM CST (1/6) 7:53 AM CST (1/6)
Length of Visible Light 10h 19m
Length of Day
9h 17m
Full, 98% of the Moon is Illuminated
Jan 6
Full
Jan 13
Last Quarter
Jan 20
New
Jan 26
First Quarter
Feb 3
Full

Hourly Weather History & Observations

Time (CST) Temp. Windchill Dew Point Humidity Pressure Visibility Wind Dir Wind Speed Gust Speed Precip Events Conditions
12:30 AM 10.0 °F - 5.0 °F 80% 30.32 in 1.0 mi Calm Calm - 0.00 in Snow Light Snow
12:53 AM 10.0 °F - 5.0 °F 80% 30.39 in 1.0 mi Calm Calm - 0.00 in Snow Light Snow
1:53 AM 10.0 °F - 5.0 °F 80% 30.38 in 1.8 mi Calm Calm - 0.00 in Snow Light Snow
2:15 AM 10.0 °F - 5.0 °F 80% 30.30 in 4.0 mi Calm Calm - 0.00 in Snow Light Snow
2:53 AM 10.9 °F 4.7 °F 5.0 °F 77% 30.38 in 3.0 mi North 3.5 mph - 0.00 in Snow Light Snow
3:25 AM 10.9 °F 1.4 °F 5.0 °F 77% 30.30 in 1.0 mi North 5.8 mph - 0.00 in Snow Light Snow
3:37 AM 10.0 °F -0.9 °F 5.0 °F 80% 30.30 in 1.0 mi North 6.9 mph - 0.00 in Snow Light Snow
3:53 AM 10.0 °F -0.9 °F 5.0 °F 80% 30.38 in 2.0 mi North 6.9 mph - 0.00 in Snow Light Snow
4:04 AM 10.0 °F 0.4 °F 5.0 °F 80% 30.30 in 3.0 mi NNW 5.8 mph - 0.00 in Snow Light Snow
4:53 AM 7.0 °F -4.5 °F 1.9 °F 80% 30.39 in 7.0 mi NW 6.9 mph - 0.00 in Snow Light Snow
5:53 AM 7.0 °F -8.3 °F 1.0 °F 77% 30.41 in 6.0 mi NNW 11.5 mph - 0.00 in Snow Light Snow
6:53 AM 5.0 °F -8.1 °F -0.9 °F 76% 30.43 in 10.0 mi NW 8.1 mph - 0.00 in   Partly Cloudy
7:53 AM 5.0 °F -8.1 °F -0.9 °F 76% 30.46 in 10.0 mi WNW 8.1 mph - N/A   Partly Cloudy
8:53 AM 7.0 °F -8.3 °F -0.9 °F 70% 30.45 in 10.0 mi NW 11.5 mph - N/A   Partly Cloudy
9:53 AM 9.0 °F -6.6 °F -0.0 °F 67% 30.46 in 10.0 mi WNW 12.7 mph - N/A   Scattered Clouds
10:53 AM 10.4 °F -4.1 °F -0.4 °F 62% 30.37 in 10.0 mi West 11.5 mph - N/A   Mostly Cloudy
11:53 AM 12.0 °F -3.4 °F 1.0 °F 61% 30.41 in 10.0 mi West 13.8 mph - N/A   Mostly Cloudy
12:53 PM 12.0 °F -4.0 °F 1.9 °F 64% 30.38 in 10.0 mi West 15.0 mph - 0.00 in   Mostly Cloudy
1:53 PM 12.0 °F -5.6 °F 1.0 °F 61% 30.37 in 10.0 mi West 18.4 mph 26.5 mph 0.00 in   Mostly Cloudy
2:53 PM 12.2 °F -3.7 °F 1.4 °F 62% 30.36 in 10.0 mi West 15.0 mph 23.0 mph N/A   Mostly Cloudy
3:53 PM 10.0 °F -7.1 °F 1.0 °F 67% 30.37 in 10.0 mi West 16.1 mph 25.3 mph N/A   Mostly Cloudy
4:53 PM 10.0 °F -6.5 °F 1.0 °F 67% 30.37 in 10.0 mi West 15.0 mph 26.5 mph N/A   Overcast
5:53 PM 10.0 °F -8.1 °F 1.0 °F 67% 30.36 in 10.0 mi West 18.4 mph 27.6 mph N/A   Overcast
6:53 PM 10.0 °F -7.6 °F 1.0 °F 67% 30.35 in 10.0 mi West 17.3 mph 24.2 mph N/A   Overcast
7:53 PM 10.9 °F -7.0 °F 1.0 °F 64% 30.33 in 10.0 mi West 18.4 mph 26.5 mph N/A   Overcast
8:53 PM 10.9 °F -7.5 °F 1.9 °F 67% 30.33 in 10.0 mi West 19.6 mph 26.5 mph N/A   Overcast
9:53 PM 10.9 °F -5.4 °F 1.9 °F 67% 30.33 in 10.0 mi West 15.0 mph 24.2 mph 0.00 in Snow Light Snow
10:53 PM 10.9 °F -7.5 °F 1.0 °F 64% 30.34 in 10.0 mi West 19.6 mph 29.9 mph 0.00 in   Mostly Cloudy
11:53 PM 8.6 °F -9.5 °F -0.4 °F 67% 30.36 in 10.0 mi WNW 17.3 mph - N/A   Partly Cloudy